FENGYUN 1C DEB

Satellite information

Favourite Embed

Satellite Type and Status

DEBRISIN ORBIT

Key statistics

Satellite FENGYUN 1C DEB at a glance.

Uptime

9715

Days in orbit

Revolutions

≈ 14.5

Per day

Orbit

SSO

Sun Synchronous Orbit

Inclination

99.3

Latest

Satellite identification and parameters

Extended collection of information and parameters for FENGYUN 1C DEB.

Object identification

Identified? True

Debris? True

Object name: FENGYUN 1C DEB

International designator: 1999-025ZE

Object number (NORAD): 30293

Object ID (CCSDS): 30293

Country: PEOPLES REPUBLIC OF CHINA (PRC)

Current information (Y/N): Y

RCS size: SMALL

Orbital parameters

Period: 99.383 minutes

Inclination: 99.2549 deg

SMA: 7107.258 km

Apoapsis: 783.657 km

Periapsis: 674.59 km

RAAN: 176.8777 deg

Eccentricy: 0.0076729

Argument of periapsis: 116.8235 deg

Mean anomaly: 36.0522 deg

Mean motion: 14.48937392 rev/day

Mean motion (dot): 0.0000496 rev/day2

B* drag term: 0.0012748 1/REarth

Two-line elements (TLE)

Creation date: Dec. 12, 2025, 7:26 a.m.

Reference frame: TEME

Reference center: EARTH

Epoch: Dec. 12, 2025, 12:31 a.m. UTC

TLE line 0: 0 FENGYUN 1C DEB

TLE line 1: 1 30293U 99025ZE 25346.02177302 .00004960 00000-0 12748-2 0 9997

TLE line 2: 2 30293 99.2549 176.8777 0076729 116.8235 36.0522 14.48937392989663

Live tracking on map

Real-time ground track for satellite FENGYUN 1C DEB.

In-orbit conjunctions

A list of the most updated potential collisions computed for object FENGYUN 1C DEB.

Target Orbit TCA Probability of collision Miss distance Type
SL-8 R/B LEO 2025-12-04 23:56:27 0.0001456193 282.0 (m) ROCKET BODY
CZ-6A DEB SSO 2025-09-15 23:31:32 0.0001918412 267.0 (m) DEBRIS
IDEFIX/ARIANE 42P SSO 2025-02-21 11:27:45 0.000415469 121.0 (m) PAYLOAD
FENGYUN 1C DEB SSO 2024-11-10 08:30:52 0.000119934 640.0 (m) DEBRIS
ORBCOMM FM 26 LEO 2024-10-31 11:32:11 0.000144394 112.0 (m) PAYLOAD

Associated space launch

Chinese polar orbiting meteorological satellite

FENGYUN 1C DEB was lifted into orbit during the mission ‘Long March 4B | Feng Yun 1C’, on board a Long March 4B space rocket.

The launch took place on May 10, 1999, 1:33 a.m. from Launch Complex 7.

For more information about the launch, click the button.

Launch to space Long March 4B | Feng Yun 1C
Long March 4B | Feng Yun 1C

Agency: N/A

Status: Launch Successful

Launch date: May 10, 1999, 1:33 a.m. UTC

Rocket: Long March 4B

Launch pad: Launch Complex 7

Location: Taiyuan Satellite Launch Center, People's Republic of China

...

Latest news about this satellite

There are no fresh news available about this satellite. Check back as we update our databases every day.


Newsletter sign-up

Weekly statistics, charts and insights to help you stay on top of the space industry.